Location: Neuvy Saint Sepulchre
(46.5953°N, 1.8122°E)
Time: 15:31:49
(UTC+01:00)

Envisat - Pass Details

Date: 25 October 2021
Orbit: 764 x 766 km, 98.2° (Epoch: 04 December)

Event Time Altitude Azimuth Distance (km) Brightness Sun altitude
Rises 07:19:40 0° 11° (N) 3,244 6.3 -11.7°
Reaches altitude 10° 07:21:59 10° 10° (N) 2,313 5.5 -11.3°
Maximum altitude 07:27:04 72° 287° (WNW) 808 2.9 -10.5°
Drops below altitude 10° 07:32:06 10° 204° (SSW) 2,295 5.3 -9.6°
Sets 07:34:23 0° 202° (SSW) 3,217 6.1 -9.2°
